• In Italy
  • List of Countries
  • For 7 days
  • Water Temperature
  • Satellite Maps
  • Weather Map
  • Weather Widgets
  • user-avatar
    Login

    Hourly Weather Argeles-Gazost

    Today, 20 January, Saturday

    Time Temperature Precipitation Wind Pressure Humidity
    00:00 -2°C° 0.1 mm 3 mps 646 mmHg 83%
    01:00 -2°C° 0 mm 3 mps 646 mmHg 81%
    02:00 -2°C° 0 mm 3 mps 645 mmHg 80%
    03:00 -2°C° 0 mm 3 mps 645 mmHg 79%
    04:00 -2°C° 0 mm 3 mps 645 mmHg 77%
    05:00 -2°C° 0 mm 3 mps 645 mmHg 76%
    06:00 -2°C° 0 mm 3 mps 644 mmHg 74%
    07:00 0°C° 0 mm 3 mps 645 mmHg 70%
    08:00 +1°C° 0 mm 3 mps 645 mmHg 66%
    09:00 +2°C° 0 mm 3 mps 645 mmHg 63%
    10:00 +3°C° 0.1 mm 4 mps 645 mmHg 64%
    11:00 +3°C° 0.1 mm 4 mps 645 mmHg 66%
    12:00 +4°C° 0.1 mm 4 mps 645 mmHg 68%
    13:00 +3°C° 0.2 mm 5 mps 644 mmHg 72%
    14:00 +3°C° 0.2 mm 5 mps 644 mmHg 76%
    15:00 +3°C° 0.2 mm 5 mps 644 mmHg 80%
    16:00 +3°C° 0.6 mm 5 mps 644 mmHg 83%
    17:00 +2°C° 0.6 mm 5 mps 644 mmHg 87%
    18:00 +3°C° 0.6 mm 4 mps 644 mmHg 90%
    19:00 +3°C° 1.2 mm 4 mps 645 mmHg 90%
    20:00 +4°C° 1.2 mm 4 mps 645 mmHg 91%
    21:00 +4°C° 1.2 mm 4 mps 646 mmHg 92%
    22:00 +4°C° 1.1 mm 4 mps 646 mmHg 92%
    23:00 +4°C° 1.1 mm 4 mps 646 mmHg 93%

    Tomorrow, 21 January, Sunday

    Time Temperature Precipitation Wind Pressure Humidity
    00:00 +4°C° 1.1 mm 4 mps 646 mmHg 93%
    01:00 +4°C° 0.8 mm 4 mps 646 mmHg 93%
    02:00 +4°C° 0.8 mm 4 mps 647 mmHg 93%
    03:00 +4°C° 0.8 mm 4 mps 647 mmHg 93%
    04:00 +4°C° 1 mm 3 mps 647 mmHg 93%
    05:00 +4°C° 1 mm 3 mps 647 mmHg 94%
    06:00 +4°C° 1 mm 3 mps 647 mmHg 94%
    07:00 +4°C° 0.5 mm 3 mps 648 mmHg 93%
    08:00 +4°C° 0.5 mm 3 mps 648 mmHg 93%
    09:00 +4°C° 0.5 mm 3 mps 649 mmHg 92%
    10:00 +5°C° 0.5 mm 3 mps 649 mmHg 91%
    11:00 +5°C° 0.5 mm 3 mps 649 mmHg 89%
    12:00 +5°C° 0.5 mm 3 mps 649 mmHg 88%
    13:00 +5°C° 0.6 mm 3 mps 649 mmHg 89%
    14:00 +5°C° 0.6 mm 3 mps 649 mmHg 90%
    15:00 +5°C° 0.6 mm 3 mps 649 mmHg 90%
    16:00 +4°C° 0.3 mm 3 mps 649 mmHg 91%
    17:00 +4°C° 0.3 mm 3 mps 649 mmHg 91%
    18:00 +4°C° 0.3 mm 3 mps 649 mmHg 92%
    19:00 +4°C° 0.1 mm 3 mps 650 mmHg 91%
    20:00 +4°C° 0.1 mm 3 mps 650 mmHg 90%
    21:00 +3°C° 0.1 mm 3 mps 650 mmHg 90%
    22:00 +3°C° 0 mm 3 mps 650 mmHg 89%
    23:00 +3°C° 0 mm 3 mps 650 mmHg 89%

    Day after tomorrow, 22 January, Monday

    Time Temperature Precipitation Wind Pressure Humidity
    00:00 +3°C° 0 mm 3 mps 650 mmHg 89%
    01:00 +3°C° 0 mm 3 mps 650 mmHg 88%
    02:00 +2°C° 0 mm 3 mps 650 mmHg 88%
    03:00 +2°C° 0 mm 3 mps 650 mmHg 87%
    04:00 +2°C° 0 mm 3 mps 650 mmHg 86%
    05:00 +2°C° 0 mm 3 mps 649 mmHg 85%
    06:00 +2°C° 0 mm 3 mps 649 mmHg 84%
    07:00 +2°C° 0 mm 3 mps 650 mmHg 82%
    08:00 +3°C° 0 mm 3 mps 650 mmHg 80%
    09:00 +5°C° 0 mm 2 mps 650 mmHg 78%
    10:00 +5°C° 0 mm 3 mps 650 mmHg 76%
    11:00 +7°C° 0 mm 3 mps 651 mmHg 73%
    12:00 +8°C° 0 mm 3 mps 651 mmHg 71%
    13:00 +8°C° 0 mm 3 mps 651 mmHg 72%
    14:00 +7°C° 0 mm 3 mps 650 mmHg 72%
    15:00 +7°C° 0 mm 3 mps 650 mmHg 73%
    16:00 +5°C° 0 mm 3 mps 650 mmHg 75%
    17:00 +4°C° 0 mm 3 mps 650 mmHg 77%
    18:00 +3°C° 0 mm 3 mps 650 mmHg 79%
    19:00 +3°C° 0.1 mm 3 mps 650 mmHg 80%
    20:00 +3°C° 0.1 mm 3 mps 650 mmHg 80%
    21:00 +3°C° 0.1 mm 3 mps 650 mmHg 81%
    22:00 +3°C° 0 mm 3 mps 650 mmHg 83%
    23:00 +4°C° 0 mm 2 mps 650 mmHg 85%

    23 January, Tuesday

    Time Temperature Precipitation Wind Pressure Humidity
    00:00 +4°C° 0 mm 2 mps 650 mmHg 87%
    01:00 +4°C° 0 mm 2 mps 650 mmHg 88%
    02:00 +4°C° 0 mm 2 mps 650 mmHg 88%
    03:00 +4°C° 0 mm 2 mps 650 mmHg 88%
    04:00 +3°C° 0 mm 2 mps 650 mmHg 87%
    05:00 +3°C° 0 mm 2 mps 650 mmHg 86%
    06:00 +3°C° 0 mm 2 mps 650 mmHg 85%
    07:00 +4°C° 0 mm 2 mps 651 mmHg 83%
    08:00 +4°C° 0 mm 2 mps 651 mmHg 81%
    09:00 +5°C° 0 mm 2 mps 652 mmHg 79%
    10:00 +6°C° 0 mm 2 mps 652 mmHg 76%
    11:00 +8°C° 0 mm 1 mps 652 mmHg 72%
    12:00 +10°C° 0 mm 1 mps 652 mmHg 69%
    13:00 +10°C° 0 mm 1 mps 652 mmHg 69%
    14:00 +10°C° 0 mm 1 mps 652 mmHg 70%
    15:00 +10°C° 0 mm 1 mps 652 mmHg 70%
    16:00 +8°C° 0 mm 1 mps 651 mmHg 75%
    17:00 +7°C° 0 mm 1 mps 651 mmHg 79%
    18:00 +4°C° 0 mm 2 mps 651 mmHg 84%
    19:00 +4°C° 0 mm 2 mps 651 mmHg 81%
    20:00 +4°C° 0 mm 2 mps 651 mmHg 78%
    21:00 +4°C° 0 mm 2 mps 651 mmHg 75%
    22:00 +3°C° 0 mm 2 mps 651 mmHg 74%
    23:00 +3°C° 0 mm 2 mps 651 mmHg 73%

    24 January, Wednesday

    Time Temperature Precipitation Wind Pressure Humidity
    00:00 +3°C° 0 mm 2 mps 650 mmHg 72%
    01:00 +3°C° 0 mm 2 mps 650 mmHg 74%
    02:00 +3°C° 0 mm 2 mps 650 mmHg 75%
    03:00 +3°C° 0 mm 2 mps 650 mmHg 76%
    04:00 +3°C° 0 mm 2 mps 650 mmHg 76%
    05:00 +3°C° 0 mm 2 mps 650 mmHg 76%
    06:00 +3°C° 0 mm 2 mps 650 mmHg 76%
    07:00 +3°C° 0 mm 2 mps 650 mmHg 73%
    08:00 +4°C° 0 mm 2 mps 650 mmHg 71%
    09:00 +5°C° 0 mm 2 mps 651 mmHg 68%
    10:00 +8°C° 0 mm 1 mps 651 mmHg 64%
    11:00 +10°C° 0 mm 1 mps 651 mmHg 59%
    12:00 +11°C° 0 mm 1 mps 652 mmHg 55%
    13:00 +11°C° 0 mm 1 mps 651 mmHg 57%
    14:00 +11°C° 0 mm 1 mps 651 mmHg 59%
    15:00 +11°C° 0 mm 1 mps 650 mmHg 61%
    16:00 +9°C° 0 mm 1 mps 650 mmHg 66%
    17:00 +7°C° 0 mm 1 mps 650 mmHg 71%
    18:00 +4°C° 0 mm 2 mps 649 mmHg 76%
    19:00 +4°C° 0 mm 2 mps 649 mmHg 73%
    20:00 +4°C° 0 mm 2 mps 649 mmHg 70%
    21:00 +5°C° 0 mm 1 mps 650 mmHg 66%
    22:00 +3°C° 0 mm 2 mps 649 mmHg 66%
    23:00 +3°C° 0 mm 2 mps 649 mmHg 65%

    25 January, Thursday

    Time Temperature Precipitation Wind Pressure Humidity
    00:00 +3°C° 0 mm 2 mps 649 mmHg 64%
    01:00 +3°C° 0 mm 2 mps 649 mmHg 65%
    02:00 +3°C° 0 mm 2 mps 649 mmHg 67%
    03:00 +2°C° 0 mm 2 mps 648 mmHg 68%
    04:00 +2°C° 0 mm 2 mps 648 mmHg 69%
    05:00 +2°C° 0 mm 2 mps 648 mmHg 69%
    06:00 +2°C° 0 mm 2 mps 648 mmHg 70%
    07:00 +3°C° 0 mm 2 mps 648 mmHg 68%
    08:00 +5°C° 0 mm 1 mps 649 mmHg 66%
    09:00 +5°C° 0 mm 1 mps 649 mmHg 65%
    10:00 +5°C° 0 mm 2 mps 649 mmHg 64%
    11:00 +6°C° 0 mm 2 mps 650 mmHg 62%
    12:00 +7°C° 0 mm 2 mps 650 mmHg 61%
    13:00 +7°C° 0 mm 2 mps 649 mmHg 67%
    14:00 +6°C° 0 mm 2 mps 649 mmHg 72%
    15:00 +5°C° 0 mm 2 mps 649 mmHg 78%
    16:00 +4°C° 0.4 mm 2 mps 648 mmHg 82%
    17:00 +3°C° 0.4 mm 2 mps 648 mmHg 86%
    18:00 +2°C° 0.4 mm 2 mps 648 mmHg 91%
    19:00 +2°C° 1.3 mm 2 mps 649 mmHg 91%
    20:00 +1°C° 1.3 mm 2 mps 649 mmHg 92%
    21:00 +1°C° 1.3 mm 2 mps 649 mmHg 92%
    22:00 +1°C° 1.3 mm 2 mps 649 mmHg 92%
    23:00 -1°C° 1.3 mm 2 mps 649 mmHg 92%
    Show more